Theta_e
278 279 280 280 281 282 283 283 284 284 284 284 284 283 282 282 280 279 280 282 283 284 283 285 284 284 285 286 287 286 285 287 288 286 286 286 286 289 293 296 298 300 302 302 303 303 304 305 307 307 308 310 311 312 312 311 311 311 311 310 310 310 309 310 310 310 310 310 310 310 310 309 309 310
278 278 278 278 279 280 281 282 283 283 284 283 283 283 283 282 280 280 279 280 283 284 284 283 285 284 284 285 286 285 285 288 288 286 285 285 286 290 293 294 296 298 300 301 301 303 303 304 305 306 307 308 309 310 310 310 310 310 310 310 309 309 309 309 310 309 309 310 310 310 310 309 309 309
278 278 277 278 278 278 279 280 281 281 282 282 283 283 283 282 282 281 280 278 282 283 284 284 283 282 283 286 286 286 286 287 287 286 285 285 288 290 290 292 294 296 297 298 300 301 302 303 305 306 306 307 308 309 309 309 309 308 308 309 308 308 310 311 310 309 309 309 309 309 309 309 309 310
278 277 277 277 277 278 278 278 279 279 281 282 282 282 282 282 282 282 281 279 280 284 284 285 285 286 286 286 286 286 286 287 288 286 286 285 288 287 286 290 292 294 295 297 298 300 301 302 303 305 306 306 307 307 308 308 307 307 307 307 308 308 308 309 309 309 309 309 309 309 308 308 309 309
276 276 276 277 277 278 277 278 278 278 279 280 280 281 281 281 281 280 280 279 279 282 283 284 284 284 283 284 284 285 285 285 285 287 286 285 285 285 285 285 288 291 293 295 296 298 299 301 302 303 305 305 305 305 306 306 306 306 306 306 306 308 308 308 309 309 309 309 309 308 308 308 308 308
275 275 275 275 276 277 277 277 277 278 278 278 278 279 279 279 280 281 280 279 279 278 281 281 283 283 284 283 284 284 285 285 285 285 285 285 284 284 284 284 285 289 292 293 295 297 298 299 301 302 303 304 305 305 305 304 304 305 305 304 305 306 306 306 306 308 308 308 308 308 308 307 306 307
275 274 274 274 275 276 276 276 276 277 277 278 277 278 278 278 279 280 280 279 278 278 279 281 281 281 282 283 283 283 284 284 284 284 285 285 285 285 284 284 285 288 291 293 294 296 297 298 299 300 301 303 304 304 303 302 303 303 303 303 304 304 303 304 305 307 308 307 308 307 307 306 306 306
275 274 274 274 275 275 275 275 275 276 276 276 277 277 277 278 278 279 279 279 279 278 278 279 280 281 281 282 282 282 282 282 283 284 284 284 284 284 284 284 284 287 290 292 293 294 296 296 298 299 300 301 303 303 303 302 301 302 301 302 302 302 302 303 304 305 305 307 307 307 307 306 305 304
275 275 274 275 275 275 275 275 275 275 275 276 276 276 277 277 278 278 278 278 279 278 277 278 279 280 280 281 282 282 281 282 282 282 282 283 283 283 284 284 285 287 290 291 292 293 294 295 296 298 299 300 301 302 302 302 301 300 300 300 300 302 302 302 302 302 303 305 305 306 305 305 304 303
275 275 275 275 275 275 275 275 275 275 275 276 276 276 276 277 277 277 277 278 277 277 277 277 277 279 278 279 280 281 281 280 280 281 281 281 282 282 283 283 284 284 285 285 287 290 291 293 294 296 297 299 300 301 302 301 301 299 298 298 299 300 301 301 302 302 302 302 303 304 305 304 304 303
274 274 274 274 275 274 275 274 274 275 275 275 275 276 276 277 277 277 277 277 277 277 277 277 277 277 278 279 278 280 280 280 280 279 280 280 281 281 282 282 284 284 284 286 289 288 288 289 290 292 295 297 298 300 301 301 301 299 298 298 299 299 299 300 301 301 301 301 301 302 302 302 303 302
272 273 273 273 274 274 274 275 275 275 275 276 276 278 278 278 278 278 278 278 277 277 276 276 276 277 277 278 278 279 278 278 279 279 278 278 280 281 281 281 282 283 283 283 283 286 288 289 290 291 292 294 296 297 298 299 298 297 298 298 299 299 299 299 300 301 300 300 300 301 301 301 300 302
272 272 273 273 273 274 276 277 278 278 278 276 276 277 277 277 277 276 276 276 276 276 276 276 277 276 276 277 277 276 276 276 277 280 278 278 280 280 280 281 282 282 282 282 282 282 283 283 284 285 286 288 291 293 295 296 295 297 298 298 298 298 298 299 299 299 300 299 300 300 300 300 300 300
271 272 272 273 275 275 275 276 277 277 278 278 277 276 276 276 276 276 276 276 276 276 275 275 276 275 275 276 277 276 277 278 278 278 278 278 279 280 279 280 281 282 282 281 281 282 283 282 282 283 283 285 287 288 290 292 295 295 298 298 298 298 298 298 299 299 299 299 299 299 299 299 299 299
270 271 271 271 272 273 273 273 275 276 277 277 278 278 279 278 276 275 275 275 276 276 276 277 278 277 277 277 278 278 278 279 278 278 279 278 279 278 277 277 279 280 282 280 280 281 283 282 281 282 282 283 284 286 287 292 295 296 297 298 298 298 298 297 297 298 298 298 298 299 299 299 299 299
270 269 269 269 270 269 270 270 270 271 273 274 275 276 277 277 278 279 276 275 274 274 274 274 275 275 276 277 279 279 279 278 279 278 278 278 278 278 277 277 278 279 282 279 279 280 282 281 281 281 282 283 283 285 288 291 293 295 297 297 298 298 298 297 297 297 298 298 298 298 298 298 298 298
268 268 268 268 268 269 271 270 269 269 269 272 274 274 275 275 276 276 277 278 275 274 273 273 273 274 274 274 275 278 280 281 279 279 279 278 278 278 278 279 279 280 280 279 278 279 281 280 280 280 282 282 283 284 288 290 292 293 295 296 297 297 297 297 297 297 297 297 297 298 298 298 298 298
267 267 267 267 267 268 269 269 269 269 269 270 270 271 271 271 273 275 276 276 277 276 274 273 272 273 275 275 277 279 281 280 279 279 279 280 279 279 278 280 281 281 281 279 279 279 280 279 279 280 281 282 282 282 286 289 291 292 294 295 296 297 297 297 297 296 296 297 297 297 297 297 297 297
268 268 268 268 267 268 268 269 270 269 270 270 269 269 270 270 271 271 272 272 273 273 274 273 273 273 274 274 274 275 276 277 278 280 279 280 280 281 282 281 281 281 280 280 279 277 281 280 278 280 281 281 281 282 286 289 290 291 293 294 295 296 296 296 296 297 296 296 296 296 297 297 297 297
268 268 268 268 268 268 268 270 273 273 271 270 270 269 270 270 271 271 274 276 277 276 275 275 275 275 276 278 277 278 278 278 278 278 279 280 279 278 278 277 280 280 280 280 279 278 279 279 278 279 281 280 280 281 281 286 289 291 292 293 294 295 295 296 296 296 296 296 296 296 296 296 296 296
268 268 268 268 268 268 268 271 274 275 275 271 270 270 270 271 271 271 273 276 277 278 278 279 279 280 280 281 281 282 282 280 280 278 277 276 279 278 276 277 278 278 281 279 279 279 279 279 278 279 279 278 279 280 281 282 287 290 291 292 293 294 294 295 295 296 296 296 296 296 296 296 296 295
268 269 271 271 269 269 269 273 275 276 275 272 272 271 271 270 270 271 273 273 273 277 278 278 278 278 279 279 280 280 281 280 279 275 273 274 276 276 277 277 278 279 281 279 279 278 278 281 278 276 276 276 277 279 280 281 283 287 289 291 292 293 294 294 295 295 295 296 296 296 296 295 295 294
268 269 270 272 272 272 273 276 277 277 275 273 272 272 271 270 270 271 272 271 272 272 272 272 273 274 275 275 274 275 278 279 278 276 275 275 274 273 275 277 278 277 279 281 280 278 277 280 275 278 272 275 275 278 279 280 280 282 284 286 288 291 292 293 294 294 295 295 295 295 296 295 295 292
268 269 269 270 274 275 276 277 277 277 277 274 273 272 271 271 270 273 273 273 273 272 272 272 273 273 274 274 275 274 274 275 275 275 275 275 274 273 273 275 277 277 279 282 281 279 279 280 277 280 279 276 275 272 277 278 279 280 282 283 284 288 291 291 292 293 294 294 295 295 295 295 295 292
268 268 269 270 273 276 276 277 277 277 277 277 274 273 272 272 273 276 273 274 276 274 274 274 274 274 274 274 274 274 274 274 275 275 276 275 275 274 274 274 275 275 279 283 285 280 278 278 278 278 278 278 278 277 271 276 277 278 280 282 282 284 286 287 289 289 292 294 294 295 295 295 295 293
270 270 271 271 273 276 277 277 277 278 278 279 275 275 277 278 278 275 275 274 274 273 272 271 271 271 271 271 271 272 273 273 274 275 275 276 276 276 276 275 275 275 277 283 286 282 280 279 279 277 277 276 276 278 273 270 274 277 279 280 281 282 284 284 286 287 288 289 290 293 293 295 295 295
270 271 271 272 275 276 277 277 278 278 279 277 275 278 278 278 278 277 274 273 272 271 270 270 269 269 270 269 270 270 271 272 273 274 274 275 276 276 277 277 277 277 278 280 282 283 282 281 281 279 277 277 276 276 276 274 271 274 276 277 279 280 282 283 284 285 286 287 288 292 293 294 295 295
272 272 271 272 276 276 277 277 277 278 277 276 277 278 278 277 277 274 274 273 272 271 270 270 270 269 269 269 269 270 271 271 272 273 273 273 274 275 277 278 279 279 279 279 279 280 281 281 282 281 280 278 276 276 275 277 274 275 275 277 278 279 280 282 282 283 285 286 287 288 289 289 291 292
272 274 277 277 277 277 278 278 277 276 276 276 277 277 277 277 274 272 271 270 269 268 268 268 268 268 269 270 270 272 272 272 273 273 273 274 274 274 275 276 277 278 279 279 280 280 280 281 282 282 280 280 279 278 278 276 274 274 275 276 274 277 279 280 281 282 283 284 285 286 287 288 289 290
276 277 277 277 277 276 275 273 272 272 273 276 277 276 275 271 269 269 268 267 267 266 267 268 268 269 270 270 271 271 272 271 270 271 271 271 271 272 272 273 274 276 278 279 280 281 281 282 282 282 281 280 280 279 279 278 275 276 277 277 277 278 279 280 280 281 282 282 284 285 286 287 288 289
273 273 274 273 275 274 275 274 274 273 273 270 269 268 268 268 268 268 267 267 267 268 268 268 269 270 271 271 271 270 270 270 271 271 271 270 271 272 272 272 272 274 276 278 279 281 281 282 283 283 281 281 281 280 280 280 279 276 276 278 278 274 276 279 279 281 282 282 283 284 285 286 286 287
272 271 272 271 269 269 269 268 268 268 267 268 268 268 268 268 269 270 272 272 271 271 271 270 271 271 271 270 271 271 270 270 270 271 270 270 270 271 272 272 272 273 274 277 278 281 282 282 282 283 283 282 280 280 280 280 279 278 275 277 278 279 279 278 279 280 282 282 282 282 284 285 285 286
269 268 268 268 267 266 265 265 265 266 267 267 268 267 267 268 268 269 269 269 269 270 270 270 270 270 270 269 270 270 269 269 270 271 271 272 271 272 273 272 272 273 273 274 277 279 281 282 283 283 283 283 283 282 280 278 278 279 276 276 277 278 279 279 279 280 281 281 281 282 282 284 285 285
264 263 262 263 263 263 263 263 263 264 264 265 265 265 267 266 266 268 269 269 270 270 270 271 270 270 270 270 270 269 270 270 270 272 273 272 273 272 272 272 272 273 274 274 276 277 280 281 281 280 279 279 280 282 282 280 278 279 278 277 277 276 278 279 279 280 281 281 281 280 280 281 283 284
259 259 259 259 260 261 261 261 261 262 262 262 262 263 263 264 265 267 267 268 270 270 271 271 271 271 270 270 270 270 270 270 271 272 273 273 273 273 273 272 273 273 274 275 276 278 279 278 278 276 276 276 277 277 280 282 281 280 279 277 277 277 277 278 279 279 280 281 281 279 279 280 281 282
257 257 257 258 258 259 259 259 260 260 260 260 260 261 261 262 264 265 266 268 269 270 271 271 271 270 270 270 270 270 271 271 272 272 272 273 273 274 274 274 274 274 275 276 276 277 276 276 276 276 274 274 274 275 277 282 282 281 279 277 277 277 277 277 278 279 279 279 280 280 278 278 279 280
255 256 256 257 257 257 257 258 258 258 259 259 260 260 261 262 263 264 266 268 268 270 271 271 271 271 271 271 271 271 272 272 272 273 274 275 276 276 275 275 275 275 275 276 278 277 275 276 276 276 275 273 272 272 275 276 279 283 280 279 277 277 277 276 276 276 278 279 279 279 279 279 278 279
255 255 255 256 256 256 257 257 258 258 258 259 259 260 261 262 263 264 266 266 267 269 271 271 271 272 272 272 271 272 272 273 274 274 275 275 275 275 275 275 275 276 276 277 277 275 275 276 275 276 276 274 273 273 274 272 271 275 280 280 277 275 277 275 274 274 275 277 277 279 280 279 278 278
254 255 255 255 256 256 256 256 257 257 258 258 259 259 260 261 262 263 264 264 266 269 270 271 271 272 272 272 273 273 273 274 274 274 275 275 275 275 276 276 276 277 277 275 274 274 274 275 275 276 276 275 274 274 275 273 271 273 276 281 279 276 275 275 274 275 275 275 276 275 274 276 278 280
255 256 255 256 256 256 256 257 257 257 258 258 259 260 260 261 262 262 263 264 266 268 268 268 269 270 271 273 273 273 273 274 274 274 275 275 275 276 276 276 276 276 275 273 272 272 273 274 275 276 277 278 278 277 276 273 268 267 270 277 282 279 276 276 275 275 274 275 275 273 271 273 271 274
255 255 255 255 255 256 256 256 257 258 258 259 259 261 261 261 262 262 263 265 266 266 266 266 267 267 268 270 271 271 271 272 273 274 274 275 275 275 276 276 276 275 274 272 272 272 272 274 276 279 277 274 272 274 272 269 269 269 270 272 278 281 280 279 277 276 274 275 274 272 271 270 270 272
255 254 255 255 255 256 256 256 257 258 258 259 259 260 261 262 262 265 264 265 265 265 265 265 266 266 267 268 269 270 270 271 272 273 274 274 274 274 274 274 274 274 274 273 272 272 272 273 273 274 272 272 272 271 271 272 272 269 269 271 273 279 279 279 279 278 276 275 273 270 269 268 269 268
255 254 255 255 256 256 257 257 257 258 259 260 260 261 261 261 262 262 263 263 264 264 264 264 265 265 266 267 268 269 269 270 271 272 273 273 274 273 273 272 273 273 274 271 269 269 270 271 272 272 272 272 271 273 272 272 272 269 269 270 271 272 275 278 278 278 278 278 277 275 273 271 268 265
254 254 254 255 256 256 256 257 258 259 260 260 261 261 262 262 262 262 263 263 263 263 263 264 264 265 265 266 267 268 269 269 270 271 271 272 272 273 273 272 271 271 271 269 269 269 269 270 271 272 271 271 272 272 271 270 268 269 269 270 270 271 271 272 274 277 277 277 276 276 276 276 275 274
253 254 254 255 255 256 256 257 258 259 260 261 262 262 262 262 263 263 263 263 263 263 263 263 264 264 265 266 266 266 267 270 269 269 270 270 271 271 271 271 270 270 269 269 268 267 268 268 269 270 270 269 270 270 270 269 268 268 268 269 269 270 270 271 270 269 270 271 274 275 275 275 275 275
Wind_Speed
5 5 5 5 6 6 6 4 4 5 4 5 5 5 6 6 7 9 10 13 10 4 2 6 4 3 5 6 5 5 5 7 8 5 5 6 7 10 16 19 20 21 22 22 21 20 20 20 19 19 19 18 18 18 18 18 17 16 14 16 20 21 22 23 23 21 22 21 20 19 18 18 18 19
6 6 6 5 6 6 6 6 6 5 5 5 5 5 6 5 8 7 9 15 7 11 4 5 6 3 4 3 5 3 6 8 9 6 6 6 8 12 17 17 18 20 22 22 22 23 21 21 20 20 20 19 19 19 19 19 18 17 18 20 22 22 22 23 23 23 22 22 20 20 20 19 20 19
6 7 8 6 6 5 6 6 6 6 6 6 6 6 5 6 7 8 8 12 6 3 10 5 3 3 5 6 7 6 6 8 9 8 7 7 10 15 12 15 17 20 21 21 22 23 23 22 21 21 21 22 22 21 19 19 19 19 21 23 24 24 23 21 21 23 22 22 22 21 21 21 21 21
6 7 9 7 7 7 6 6 6 6 6 6 6 6 6 6 6 7 8 11 17 5 9 12 9 10 10 8 10 10 7 7 11 8 8 8 10 9 8 11 17 18 20 21 21 22 23 23 22 21 21 22 24 24 22 21 22 22 22 24 25 25 24 21 18 20 22 21 23 23 21 21 22 21
6 7 8 8 7 7 8 7 6 6 6 6 7 6 6 7 6 6 8 12 15 10 5 10 8 6 6 9 5 10 8 7 7 8 7 6 7 7 7 8 12 16 19 20 21 22 22 23 23 22 21 21 24 24 25 25 23 23 24 24 25 25 25 23 20 18 21 23 23 23 21 21 22 22
6 7 9 9 7 6 9 9 8 7 7 6 8 7 7 7 8 5 7 11 11 17 6 8 8 8 5 11 5 7 11 8 6 8 8 5 6 7 7 7 8 12 17 19 20 22 23 23 24 24 22 21 23 24 25 25 24 23 24 24 23 23 24 24 22 22 20 25 24 24 22 23 25 22
8 9 9 9 8 7 8 8 7 7 8 7 8 9 7 8 8 7 7 9 13 15 13 6 10 7 6 8 10 5 8 9 7 9 9 8 6 5 6 7 7 10 16 18 20 21 22 23 24 25 25 23 22 23 24 26 23 22 23 23 23 22 21 23 22 21 21 25 25 24 22 23 25 24
11 11 12 10 8 8 10 9 8 6 7 7 7 8 8 8 9 8 7 9 11 12 14 10 7 8 8 9 8 6 7 9 8 8 9 5 7 7 6 7 8 8 15 18 19 20 21 23 24 25 25 23 22 22 23 23 23 22 21 21 22 22 21 22 21 20 22 22 24 25 24 22 25 26
11 11 11 12 10 9 11 11 8 7 8 8 8 9 9 9 8 8 8 9 9 11 14 14 8 7 9 7 10 8 9 9 8 7 8 8 8 8 7 7 7 10 16 18 19 19 21 22 23 24 25 25 24 24 24 24 23 22 21 21 21 22 23 22 22 21 21 21 20 21 24 24 26 27
10 11 11 11 10 11 12 12 11 10 11 10 10 10 10 9 9 10 10 9 10 10 13 12 13 7 9 9 7 8 7 9 10 9 8 6 6 8 9 8 7 5 6 7 9 13 16 20 23 24 24 26 26 25 25 24 24 23 21 21 21 22 23 23 22 23 22 21 21 21 21 26 27 28
11 11 11 11 11 12 12 13 13 13 13 11 12 11 11 10 10 10 10 10 10 11 12 13 11 11 8 7 10 6 6 8 9 10 10 9 6 7 8 10 5 5 7 10 14 13 11 12 12 17 23 25 27 26 25 24 24 22 22 22 22 22 23 23 23 22 23 23 22 20 20 21 25 29
11 12 12 11 11 11 11 12 12 12 12 11 12 10 9 9 11 11 10 10 9 10 11 12 13 10 10 8 6 5 3 7 9 6 7 12 12 8 6 7 9 5 7 7 7 9 12 13 16 19 21 24 26 25 23 24 23 23 22 23 23 21 22 23 23 23 23 23 23 22 20 22 22 25
10 10 10 10 10 12 18 23 21 20 19 14 13 12 10 10 10 12 11 11 11 11 11 13 12 12 12 9 9 8 7 8 11 8 4 8 10 9 8 8 8 8 8 7 7 8 8 8 9 9 10 13 18 20 24 20 24 23 22 23 23 22 22 22 23 24 23 22 23 22 21 22 23 23
12 12 12 12 19 21 21 20 21 21 22 23 18 15 14 13 13 12 11 10 9 10 12 12 12 14 13 11 9 9 8 6 6 8 7 10 12 10 9 11 8 6 7 7 9 10 7 8 10 9 11 11 10 10 12 14 15 17 23 23 22 23 23 24 23 24 23 22 23 23 23 23 23 24
14 13 13 12 15 16 17 15 20 21 22 21 22 23 23 20 16 13 12 12 11 10 11 11 12 11 14 14 11 10 9 8 7 9 8 9 10 11 9 13 8 4 8 8 8 10 7 7 11 10 11 10 9 10 12 12 19 20 22 23 22 22 24 25 27 24 25 24 24 24 24 24 24 25
12 13 13 12 11 12 13 14 14 16 21 23 24 24 23 22 23 22 17 14 13 12 11 12 13 14 16 16 12 8 7 8 7 7 8 10 10 11 11 9 12 4 8 5 7 11 6 7 9 11 10 10 8 10 13 18 20 22 24 22 23 23 24 25 26 27 25 26 26 25 26 26 25 25
12 12 12 12 11 10 18 14 11 12 13 18 23 23 23 22 23 22 24 24 18 14 14 14 15 15 14 16 15 11 9 6 12 10 10 8 9 10 12 12 11 9 5 5 7 12 7 8 8 12 11 8 7 10 16 22 22 23 24 24 23 24 24 25 26 28 29 26 26 25 25 26 25 25
12 13 12 13 12 12 13 13 14 14 13 13 13 12 12 12 15 19 22 22 24 20 14 13 16 16 12 14 14 12 9 10 10 9 10 9 11 10 12 12 13 9 7 9 7 12 9 6 8 12 11 6 7 10 13 20 22 24 25 25 27 27 27 27 26 28 28 29 27 28 27 25 25 25
13 13 13 13 14 13 13 12 16 16 16 14 12 12 13 14 14 15 15 14 13 13 13 15 17 18 16 15 18 17 14 12 13 10 12 13 14 13 13 13 12 12 6 8 7 15 13 5 7 11 10 5 8 9 12 21 23 25 25 26 26 28 29 29 27 26 28 28 29 30 27 26 25 25
12 13 13 13 14 14 14 18 25 22 18 15 15 14 14 13 13 13 14 20 20 18 16 15 16 14 15 19 18 17 14 12 12 14 15 15 15 16 16 16 12 14 6 10 10 11 13 5 8 10 8 6 8 8 8 15 23 24 25 26 27 28 31 29 29 28 28 30 29 29 29 26 25 25
13 12 13 14 15 16 16 22 27 26 26 17 15 15 14 12 11 10 9 17 24 24 25 27 28 29 29 29 29 30 31 22 17 13 13 14 12 14 15 14 13 15 10 8 10 11 14 8 8 10 7 6 8 9 8 9 16 24 24 26 27 28 28 29 31 29 29 31 29 28 30 27 25 25
11 13 24 22 17 17 16 24 27 28 23 16 13 12 13 13 12 11 11 11 13 23 28 29 30 29 27 27 28 29 28 27 20 12 15 14 12 15 13 15 14 12 11 8 9 9 14 10 7 5 5 4 4 7 7 8 10 17 21 26 27 27 29 31 29 31 29 30 29 28 30 28 24 18
10 11 14 23 22 21 23 30 29 30 24 15 12 12 12 13 12 11 11 12 13 12 13 14 15 16 20 18 15 16 26 27 22 14 14 13 13 15 15 16 14 15 12 10 11 12 10 11 5 7 3 8 5 7 7 8 8 9 9 11 15 25 27 28 29 32 30 31 31 30 30 28 23 13
10 10 9 13 23 28 29 29 31 29 30 20 14 11 12 12 15 11 13 13 14 14 13 13 12 14 13 14 13 13 13 14 13 14 13 13 13 14 17 17 14 13 9 3 11 12 10 11 8 8 11 9 7 2 6 8 8 8 9 9 9 15 22 24 22 30 31 32 32 32 32 29 25 14
11 7 9 11 19 29 30 30 31 31 30 28 18 13 11 12 16 19 13 13 18 12 10 10 10 10 9 10 11 12 12 12 11 11 15 13 11 13 15 15 15 17 15 9 8 10 11 8 11 7 10 9 10 7 2 6 6 7 8 9 9 8 8 10 10 12 19 27 30 31 30 30 32 21
10 11 11 10 19 29 30 30 32 33 31 32 19 16 24 28 28 19 12 10 7 8 9 9 10 9 9 10 9 10 10 10 10 10 11 12 14 13 14 15 17 15 15 12 20 12 12 12 11 10 9 8 9 9 5 2 4 7 7 7 8 8 8 8 8 9 9 9 12 19 22 30 31 32
11 9 10 13 25 30 31 31 31 31 33 27 16 25 26 26 29 23 10 9 10 10 10 10 11 11 10 10 10 10 10 10 11 11 12 12 13 14 16 19 18 17 15 14 14 14 15 15 11 12 11 9 10 8 8 7 4 4 6 6 7 6 7 7 9 9 9 9 10 18 23 27 32 34
11 12 12 15 28 30 31 31 29 29 26 18 25 26 27 26 23 13 10 9 9 10 10 11 12 11 9 9 11 10 9 12 11 13 13 14 14 15 13 14 16 15 18 16 16 19 19 17 14 11 13 12 11 11 10 6 4 7 8 7 6 6 6 8 8 8 7 7 7 9 9 11 15 20
11 20 30 32 30 30 30 31 30 23 22 26 26 26 26 24 11 10 9 10 10 11 12 10 12 10 11 10 12 11 11 12 11 11 10 11 13 14 14 16 15 17 14 15 17 19 20 19 18 13 10 12 12 11 10 9 7 7 8 8 4 6 7 7 7 9 9 9 9 9 10 11 12 12
31 29 29 30 27 24 21 16 11 10 12 22 26 26 24 12 11 10 10 10 10 10 10 12 13 12 12 10 10 11 11 11 10 9 11 11 11 11 12 13 14 15 15 16 19 20 19 18 18 17 14 12 13 12 11 9 6 7 9 10 8 4 6 7 9 8 8 8 9 10 9 9 11 11
13 17 18 17 24 21 24 22 19 18 18 14 11 10 9 9 10 10 9 10 11 13 12 12 11 11 10 10 10 10 10 11 11 9 12 11 11 11 10 12 12 12 12 14 15 18 19 19 17 18 18 14 13 13 11 10 9 7 8 8 9 9 7 10 8 9 9 10 9 8 9 9 9 11
14 14 15 18 12 10 9 9 7 6 7 9 9 9 9 10 11 13 18 18 12 12 11 11 10 11 10 10 11 11 9 11 11 10 10 11 12 11 10 12 14 12 12 13 12 17 20 20 19 17 17 16 14 12 10 9 10 8 8 8 9 8 6 9 10 10 10 8 8 9 10 10 10 9
12 10 10 9 8 9 10 10 8 8 7 8 9 10 10 9 10 9 8 9 10 10 10 10 11 11 10 10 9 9 10 11 11 10 9 11 12 12 11 13 12 12 11 12 11 12 14 16 18 17 16 14 14 12 11 10 10 8 8 8 9 9 7 8 10 9 8 9 9 9 10 9 9 10
10 9 9 9 9 9 8 11 10 10 10 9 10 10 13 12 11 10 10 9 10 10 11 10 10 10 10 10 10 9 10 11 10 11 13 14 12 13 11 13 12 13 12 13 12 13 12 13 12 11 10 11 8 11 12 11 10 9 7 8 9 10 9 8 8 9 9 11 11 10 8 8 9 9
9 9 9 10 10 10 9 9 9 10 11 10 10 9 10 10 10 12 10 10 10 11 10 10 9 10 9 10 10 10 10 11 11 11 11 12 12 13 13 14 12 12 12 13 12 11 10 10 10 8 5 3 4 4 4 8 11 9 7 8 8 9 8 7 7 7 8 8 7 9 8 9 9 8
7 7 8 9 9 9 10 10 10 10 10 10 9 10 11 12 12 12 12 13 13 13 11 9 10 9 9 9 9 10 10 12 11 12 12 11 11 13 11 13 12 12 11 11 12 11 8 9 9 10 9 7 6 7 10 10 10 7 8 7 7 7 6 6 7 7 8 8 9 9 9 10 9 8
7 6 7 7 8 8 9 9 9 9 9 9 10 9 11 12 13 13 15 16 14 12 11 10 10 10 10 10 10 11 11 11 11 12 12 12 12 11 10 9 10 10 10 11 11 9 7 8 8 10 10 9 10 12 9 2 10 10 6 8 5 7 7 7 7 8 8 9 9 9 10 9 8 7
7 7 7 7 7 8 9 9 9 9 9 9 9 10 10 11 10 12 11 13 13 12 12 10 10 10 9 9 9 10 10 11 11 11 11 11 12 12 10 10 10 9 10 11 9 9 9 9 9 9 9 10 10 10 10 2 1 3 7 7 5 6 6 7 8 9 9 7 9 9 7 7 6 6
5 7 7 8 8 8 9 9 9 10 10 10 10 10 11 11 11 11 12 13 13 12 12 12 11 10 10 10 10 10 10 9 9 10 10 10 10 11 10 9 9 9 8 6 6 7 8 8 9 9 9 10 9 7 6 3 4 3 5 12 7 7 8 10 10 8 8 8 6 2 5 3 6 7
7 6 7 8 8 8 8 8 9 9 10 10 10 10 10 11 11 12 13 13 13 13 12 12 13 13 12 11 10 11 11 12 11 9 9 10 10 11 10 9 9 7 6 5 5 6 7 9 9 9 9 9 8 6 6 3 2 2 1 8 17 11 8 9 9 9 8 7 6 6 5 3 4 3
8 8 8 7 8 8 8 9 9 9 9 10 10 11 10 10 11 11 11 13 14 13 12 12 12 13 12 11 11 12 12 12 10 10 10 11 11 11 11 10 8 5 6 6 6 6 9 11 12 15 8 4 6 7 6 2 4 2 4 4 9 16 12 10 7 7 7 7 8 8 7 6 6 6
7 8 8 7 8 9 9 9 10 9 10 9 9 10 10 10 10 17 15 15 13 13 11 11 11 11 11 11 11 12 12 12 11 11 10 10 10 10 9 5 5 3 5 7 8 6 1 3 2 4 6 6 6 6 7 7 7 4 3 2 0 8 8 7 10 7 6 8 9 6 4 4 3 3
7 8 9 9 8 8 9 9 9 10 10 10 9 10 10 11 10 11 10 11 10 10 9 9 9 10 10 10 10 10 11 12 11 11 12 11 9 9 8 6 5 3 3 2 4 4 3 3 4 5 5 5 5 6 7 7 4 5 4 5 4 4 2 6 6 7 8 10 5 6 8 8 8 8
8 9 9 9 9 9 9 9 10 10 10 10 10 9 9 9 11 11 10 10 10 10 11 11 11 11 11 11 11 11 9 9 10 11 11 10 9 7 6 5 2 1 2 3 5 4 4 4 3 3 5 5 4 5 6 4 5 5 6 6 4 6 5 4 4 7 8 7 9 10 9 7 5 4
7 7 8 9 9 9 9 9 9 10 10 10 10 10 10 9 10 10 10 10 10 11 11 11 11 11 11 11 11 11 10 11 10 8 8 8 8 7 5 1 2 3 3 2 5 5 4 4 3 3 2 2 2 2 3 4 5 6 6 7 7 5 5 5 7 7 5 5 5 7 6 5 5 10
Wind_Direction
318 320 322 315 306 306 308 302 283 274 271 263 259 246 249 248 266 299 298 291 299 300 188 294 289 234 245 253 259 270 269 277 281 277 263 255 258 254 251 250 251 252 253 253 251 246 242 240 238 241 244 243 238 237 239 241 241 243 245 249 248 246 247 247 245 243 244 244 241 237 236 237 237 236
317 312 312 311 307 304 311 303 303 295 279 274 262 254 250 233 244 258 277 285 278 291 264 241 277 294 283 276 290 275 272 269 273 263 254 247 248 254 256 254 255 254 254 254 253 251 245 240 237 235 238 240 238 234 234 234 235 233 235 239 243 244 243 244 243 241 240 241 239 236 235 234 235 234
317 314 312 310 303 303 301 302 303 300 294 282 274 265 251 245 238 253 259 277 272 155 291 272 253 268 294 290 279 276 269 267 267 264 253 247 244 250 256 255 254 253 252 252 252 252 251 246 239 233 232 234 235 234 231 231 233 233 235 238 239 239 238 245 246 239 239 237 238 236 236 236 235 231
306 304 305 306 307 307 301 299 295 293 294 290 285 276 266 259 247 247 260 258 272 259 275 283 283 284 283 276 284 282 272 262 261 265 257 255 253 254 255 251 250 250 250 249 249 249 250 249 245 238 231 229 231 234 233 232 233 234 235 237 238 235 234 237 251 243 232 234 234 234 232 235 237 233
299 298 294 299 300 299 298 295 296 294 290 290 284 278 274 271 258 248 258 266 278 277 213 269 281 281 295 290 240 276 277 278 271 263 261 258 254 252 253 254 250 248 249 249 248 248 248 248 247 243 237 231 232 233 236 236 235 234 234 235 234 233 232 233 238 246 232 228 230 231 229 232 236 234
309 303 302 298 296 290 285 291 294 294 295 293 291 284 276 271 275 247 262 269 272 284 273 276 280 285 265 276 266 260 283 279 272 271 271 256 241 249 250 254 254 245 247 248 248 247 247 246 246 245 241 236 233 232 236 237 235 234 234 233 229 230 231 231 233 237 235 227 228 225 224 229 232 233
309 304 299 298 301 299 292 289 288 290 288 284 282 284 278 276 274 268 251 269 278 281 281 262 280 279 279 270 284 265 268 273 272 280 276 269 264 247 249 251 256 248 247 248 248 249 248 247 246 244 243 240 235 232 233 239 237 234 232 232 229 226 227 229 230 229 234 229 227 226 221 226 230 231
314 309 308 304 306 301 294 293 293 287 279 278 280 279 281 275 277 272 262 257 268 281 287 277 259 280 282 281 275 274 264 275 274 266 275 268 265 262 251 245 254 250 253 252 251 250 249 249 247 246 244 242 239 235 232 232 237 236 233 231 230 228 224 224 225 227 229 229 230 224 222 223 228 231
302 301 300 305 310 308 302 300 296 293 288 285 282 281 280 278 277 275 268 266 263 275 278 285 275 268 269 266 279 282 284 280 271 270 263 266 266 266 251 251 241 243 246 249 248 247 247 247 247 246 245 244 241 237 234 234 230 232 234 231 228 228 226 224 221 222 225 221 226 226 221 220 226 228
304 301 301 301 305 305 303 302 302 299 294 292 285 283 281 279 276 276 274 268 269 269 274 279 289 272 271 277 259 273 272 282 284 277 269 267 255 258 266 248 246 237 239 246 249 248 249 249 249 247 246 245 242 239 233 230 227 225 225 229 229 227 228 227 223 218 221 224 224 227 225 220 223 227
305 303 302 301 301 298 296 296 298 301 296 290 284 280 282 277 275 274 273 272 272 273 279 281 276 282 268 259 277 262 249 263 265 279 293 282 252 246 248 267 248 227 240 240 242 243 238 237 240 245 247 247 245 243 239 234 230 223 221 223 227 227 227 228 227 221 218 221 225 226 222 217 222 226
296 297 297 295 293 291 287 287 288 287 287 288 287 286 284 285 284 282 282 281 278 277 278 278 287 279 283 276 259 277 281 280 273 243 251 275 282 265 240 239 255 237 230 248 250 248 251 251 249 250 249 247 247 246 245 241 234 227 220 220 223 224 226 226 228 226 220 218 221 224 221 215 216 224
298 294 291 290 291 294 297 296 295 292 291 292 292 289 290 291 288 285 281 280 280 278 278 281 279 283 280 271 275 272 254 242 257 270 224 260 265 278 278 262 231 232 238 241 242 245 229 239 238 235 239 240 241 244 243 242 238 231 224 220 219 219 223 225 225 228 225 220 219 223 222 217 214 219
307 306 306 303 303 302 300 298 295 292 289 285 283 285 285 282 278 275 276 272 266 268 269 267 274 276 275 274 262 264 256 249 261 270 267 266 275 278 274 278 248 206 217 238 247 244 226 222 244 232 239 242 234 238 237 234 234 232 229 225 216 215 219 224 224 226 226 222 219 220 222 219 215 216
307 307 307 307 308 307 304 303 302 301 299 298 295 291 287 284 284 290 290 286 288 290 286 289 285 277 277 273 268 261 268 260 255 260 261 260 269 271 280 281 289 186 195 220 245 257 223 202 239 240 236 240 228 231 236 232 234 230 229 226 218 213 215 220 227 225 224 224 221 218 220 220 217 215
304 305 305 303 301 299 299 299 301 300 297 294 291 288 287 286 284 281 281 286 287 282 281 276 270 277 276 285 287 279 267 271 268 255 255 258 257 264 262 260 266 251 186 203 238 255 228 188 229 251 242 236 225 230 235 234 233 232 230 226 224 218 215 216 222 227 224 223 222 220 218 219 218 217
302 302 299 298 295 295 297 296 291 288 287 287 288 288 289 289 288 287 285 283 283 288 284 281 279 270 278 280 280 284 283 275 274 272 263 257 258 258 260 259 266 264 178 198 242 259 239 172 217 245 243 232 220 229 235 235 233 233 232 228 222 219 216 214 217 224 225 223 223 222 220 219 220 219
297 297 297 298 297 297 297 295 293 291 289 288 290 292 290 285 284 286 284 282 281 279 279 283 281 283 286 284 293 296 305 295 286 286 280 280 271 265 261 266 263 260 173 200 236 264 253 192 206 241 251 214 214 228 226 229 232 232 231 230 228 225 223 221 220 224 225 225 223 224 223 220 220 221
297 295 295 294 293 295 294 292 290 290 290 290 285 283 282 282 285 285 286 284 280 272 266 267 268 272 272 273 277 280 282 284 287 284 282 282 281 280 277 270 265 268 204 214 208 255 267 205 204 237 245 202 215 228 224 225 226 229 230 229 228 228 228 226 222 222 225 225 224 224 224 221 220 221
295 294 293 293 292 291 291 290 291 291 289 286 282 276 272 270 266 261 260 275 277 277 276 272 272 269 270 274 274 274 272 266 265 264 264 262 260 263 262 260 259 259 214 202 212 249 259 215 203 240 239 194 227 229 226 223 227 227 227 228 228 228 229 227 227 225 225 225 224 223 222 222 221 221
292 291 289 287 289 288 286 286 289 290 291 285 276 272 272 268 264 261 250 270 280 282 282 281 281 282 284 284 283 283 284 285 289 295 293 279 271 257 260 260 255 252 245 222 205 236 258 232 209 239 241 191 219 230 221 216 224 227 227 227 227 228 228 230 230 226 226 226 223 221 221 220 219 218
288 281 285 285 287 285 280 283 286 288 290 285 281 275 272 270 264 262 260 262 261 265 271 273 274 276 280 282 282 283 285 286 289 291 282 283 290 285 275 267 259 263 247 230 181 229 240 254 222 213 262 231 231 226 222 211 217 221 227 227 226 226 227 228 228 229 227 227 225 223 222 220 216 215
271 263 270 277 284 288 287 289 292 293 293 287 280 276 271 271 265 264 262 262 265 260 257 258 260 263 264 267 266 265 270 274 275 271 275 285 280 278 277 276 277 267 252 230 178 228 242 240 230 185 243 250 234 215 207 211 208 210 213 225 228 228 227 227 229 229 229 227 227 225 222 219 212 211
266 254 247 265 282 289 290 291 292 291 288 284 277 271 270 268 273 268 267 263 264 265 258 260 252 255 255 259 260 259 260 261 258 257 258 262 266 270 273 273 274 275 270 241 174 220 237 234 242 198 215 233 255 220 204 209 208 203 206 214 222 224 228 229 230 230 230 229 227 226 223 219 212 208
275 253 255 265 280 290 292 291 290 288 285 284 279 273 265 262 265 271 272 273 275 275 270 264 265 265 267 265 262 264 263 261 256 252 258 254 250 258 266 268 265 266 268 262 209 207 237 226 237 204 226 218 244 244 235 207 210 197 206 207 217 219 214 225 229 231 233 233 231 227 224 221 215 209
276 274 278 275 288 292 290 290 288 287 287 284 283 281 282 285 289 292 286 282 281 277 279 278 276 275 271 267 260 261 263 262 260 256 259 260 260 252 250 257 264 266 261 261 255 234 248 241 225 216 220 218 240 233 221 228 237 204 199 203 212 208 202 205 221 230 227 226 232 229 226 224 221 215
281 276 275 275 288 291 288 284 284 286 287 292 294 293 297 299 299 301 301 294 284 276 272 271 270 267 265 267 267 264 269 269 268 270 268 266 263 258 254 250 252 257 266 271 273 268 247 247 223 216 223 218 229 228 222 210 244 196 196 199 211 201 202 196 212 219 221 222 227 231 231 225 222 220
286 283 277 279 285 288 293 297 301 302 307 305 301 302 300 300 300 295 288 281 279 279 280 277 275 272 267 264 270 268 264 267 263 263 264 262 261 266 275 272 261 255 257 256 254 253 255 253 242 220 216 218 221 223 232 224 186 166 188 205 196 202 199 205 210 217 221 223 222 222 221 224 222 221
288 296 299 300 301 302 304 305 305 305 302 298 299 298 298 300 302 300 294 292 289 283 280 276 276 273 272 263 266 265 263 263 262 264 263 264 266 265 261 264 266 269 268 264 255 246 247 249 249 237 218 222 224 226 224 226 170 192 179 166 192 205 202 202 206 209 211 211 218 215 216 216 218 212
303 303 304 305 305 303 299 295 289 280 288 297 302 303 305 306 298 292 289 282 279 273 275 276 277 276 275 269 265 265 266 266 262 259 264 268 262 256 259 259 256 255 255 254 255 251 245 243 242 241 233 223 223 226 223 221 206 185 182 187 192 179 199 198 207 211 205 210 215 218 220 221 219 210
305 306 311 313 312 313 312 311 310 307 306 306 302 297 293 288 283 280 272 273 273 276 274 274 268 270 268 269 269 267 265 263 263 259 267 266 264 260 255 257 262 261 255 254 250 248 246 242 237 235 237 229 224 225 224 218 221 178 193 188 177 186 192 198 203 206 207 209 212 214 219 217 221 219
314 315 315 311 310 319 323 315 300 291 294 295 299 294 292 290 285 280 278 279 273 271 269 266 272 271 273 270 269 269 263 262 262 258 256 255 259 253 254 257 259 258 259 256 252 245 242 240 236 233 232 231 226 222 220 219 221 203 183 187 195 204 179 183 195 207 206 200 205 214 214 214 214 216
321 319 315 317 327 328 321 323 319 317 311 307 303 301 302 302 300 295 290 281 278 276 273 272 273 273 269 268 263 262 262 259 259 256 251 252 251 254 247 251 254 255 258 257 252 250 238 234 230 229 229 230 227 220 212 215 219 212 178 185 188 202 193 190 193 198 190 194 210 212 216 211 213 212
333 336 330 327 328 327 332 327 327 325 326 322 320 317 317 312 302 294 293 288 283 280 277 273 273 272 272 271 270 264 264 268 265 260 260 262 254 255 246 246 247 248 248 253 253 250 241 230 224 229 237 234 236 218 210 211 216 211 185 175 188 200 204 185 195 191 186 194 199 210 208 215 212 212
349 340 338 333 328 328 326 324 323 324 323 322 319 314 309 302 304 306 300 299 292 285 279 279 271 269 269 271 273 273 271 272 273 274 264 259 256 251 250 246 247 245 243 243 245 242 230 219 202 201 195 199 231 274 255 216 211 211 185 188 191 198 196 181 184 190 192 202 205 209 212 212 213 208
345 339 330 325 325 326 325 323 323 320 318 314 312 310 312 311 311 311 310 309 304 295 288 283 280 275 272 269 270 270 271 273 273 272 273 265 262 259 248 245 245 244 238 238 239 232 210 204 192 196 200 201 213 220 223 216 207 205 194 200 196 189 177 169 182 188 193 201 204 203 211 211 212 201
335 332 325 321 321 321 317 316 315 313 312 308 307 307 306 308 310 309 305 307 300 292 288 285 280 279 274 272 272 269 272 273 272 273 273 282 285 274 257 244 238 239 240 238 232 216 190 191 193 193 199 199 192 217 227 84 211 213 205 211 186 174 172 163 167 191 203 200 203 204 212 214 209 195
327 321 318 319 318 317 314 313 313 310 310 309 305 305 302 301 300 301 304 305 302 301 302 299 288 281 277 272 273 273 275 273 275 276 279 285 290 289 268 253 246 239 236 233 217 198 188 188 187 196 199 207 209 216 220 198 17 272 225 219 179 169 161 159 178 194 203 204 205 211 214 223 209 189
318 320 322 317 317 316 315 312 311 309 309 309 309 308 308 306 306 307 310 308 306 307 317 314 308 300 293 288 284 284 282 280 279 281 282 283 285 289 282 264 250 243 235 210 189 186 179 190 189 193 196 202 209 210 200 171 226 196 176 197 184 161 183 180 191 195 191 191 198 77 40 56 64 116
329 322 314 314 310 310 304 305 304 304 304 304 306 304 305 309 310 311 311 309 312 319 319 317 321 321 315 312 308 304 298 291 287 285 285 286 288 287 284 271 256 239 217 184 176 175 184 193 194 195 194 204 200 175 160 155 85 46 246 221 213 201 185 182 190 184 189 191 166 139 142 116 111 147
325 321 316 311 306 307 307 307 304 303 302 302 303 307 307 303 306 305 308 316 318 316 317 318 318 318 315 312 310 311 308 305 299 295 292 291 288 286 283 276 255 223 200 194 191 181 198 201 198 196 185 106 98 91 76 100 219 155 180 229 219 214 204 196 188 179 182 168 163 172 168 168 157 159
310 308 307 308 309 309 308 307 309 307 304 304 306 309 309 310 304 314 316 316 314 315 313 313 314 313 312 312 312 314 312 310 306 301 298 294 291 287 283 285 285 283 225 206 205 219 308 29 58 82 88 123 128 140 198 207 214 161 168 125 180 203 196 190 199 198 172 154 151 134 90 56 56 124
315 311 311 313 312 309 310 308 308 307 306 306 306 307 310 313 313 316 316 316 315 316 313 311 309 310 310 310 310 311 311 312 312 308 305 301 293 284 279 263 252 238 199 89 85 85 97 90 116 129 133 141 179 171 205 208 185 133 135 135 128 72 104 161 150 149 162 172 177 181 179 168 155 186
318 316 313 313 314 313 312 310 309 308 308 306 305 306 309 315 319 319 317 315 317 317 318 316 315 315 314 314 312 311 311 312 314 314 313 309 304 296 291 302 326 30 44 87 80 69 81 95 100 133 161 185 170 186 199 130 145 147 139 130 102 102 104 78 102 126 129 127 99 88 85 76 59 53
311 310 311 312 312 312 309 310 310 311 311 311 312 313 312 313 317 318 317 317 317 318 316 316 315 315 315 316 316 315 315 315 317 310 310 313 316 317 312 321 76 50 48 67 98 70 82 101 86 69 60 52 51 122 101 125 123 124 126 126 124 118 103 116 114 96 87 74 95 122 122 119 93 101